1485187200.23,15053,11.75,73596.8,-7.95,-40.97,-41.29,0,*5D
1485187201.51,15054,11.75,73596.3,-7.95,-40.97,-41.23,0,*50
1485187202.77,15055,11.75,73594.5,-7.95,-40.59,-40.73,0,*57
1485187204.02,15056,11.75,73596.0,-7.95,-40.73,-40.79,0,*56
1485187205.3,15057,11.75,73598.0,-7.95,-40.59,-40.59,0,*5D
1485187206.55,15058,11.75,73596.8,-7.95,-40.73,-40.79,0,*58
1485187207.8,15059,11.75,73598.3,-7.95,-40.73,-40.79,0,*59
1485187209.04,15060,11.75,73596.0,-7.95,-40.73,-40.91,0,*55
1485187210.3,15061,11.75,73596.5,-7.97,-40.79,-40.97,0,*5A
1485187211.53,15062,11.75,73594.0,-7.97,-40.97,-41.29,0,*5D
1485187212.79,15063,11.75,73594.5,-7.95,-40.79,-40.91,0,*5C
1485187214.04,15064,11.75,73596.5,-7.95,-40.73,-40.79,0,*57
1485187215.27,15065,11.75,73596.5,-7.95,-40.73,-40.73,0,*5C
1485187216.5,15066,11.75,73598.5,-7.95,-40.73,-40.91,0,*53
1485187217.79,15067,11.75,73598.5,-7.95,-40.97,-41.23,0,*50
1485187219.04,15068,11.75,73596.0,-7.95,-40.79,-40.91,0,*57
1485187220.3,15069,11.75,73600.8,-7.95,-40.79,-40.91,0,*56
1485187221.56,15070,11.75,73598.3,-7.95,-40.79,-40.91,0,*5E
1485187222.81,15071,11.75,73596.5,-7.95,-40.73,-40.79,0,*53
1485187224.04,15072,11.75,73598.3,-7.95,-40.73,-40.73,0,*5A
1485187225.3,15073,11.75,73598.3,-7.95,-40.59,-40.73,0,*53
1485187226.5,15074,11.75,73592.8,-7.97,-40.65,-40.65,0,*5E
1485187227.73,15075,11.75,73594.0,-7.97,-40.97,-41.29,0,*5B
1485187229.0,15076,11.75,73598.0,-7.97,-40.85,-40.97,0,*5F
1485187230.28,15077,11.75,73596.0,-7.95,-40.97,-41.35,0,*56
1485187231.52,15078,11.75,73594.8,-7.95,-40.91,-41.11,0,*59
1485187232.78,15079,11.75,73592.5,-7.95,-40.91,-41.23,0,*59
1485187234.0,15080,11.75,73594.3,-7.97,-41.03,-41.41,0,*53
1485187235.25,15081,11.75,73594.8,-7.95,-41.11,-41.23,0,*57
1485187236.51,15082,11.75,73596.3,-7.95,-41.11,-41.23,0,*54
1485187237.73,15083,11.75,73598.0,-7.97,-41.03,-41.03,0,*56
1485187239.0,15084,11.75,73596.3,-7.97,-40.85,-40.97,0,*52
1485187240.24,15085,11.75,73596.5,-7.95,-40.91,-41.03,0,*58
1485187241.51,15086,11.75,73596.3,-7.95,-40.91,-40.97,0,*57
1485187242.74,15087,11.75,73598.3,-7.97,-40.97,-41.17,0,*5B
1485187243.98,15088,11.75,73598.3,-7.97,-40.85,-41.03,0,*52
1485187245.24,15089,11.75,73596.0,-7.97,-40.85,-40.97,0,*5F
1485187246.48,15090,11.75,73596.0,-7.95,-40.91,-41.11,0,*5F
1485187247.72,15091,11.75,73596.8,-7.97,-40.97,-41.17,0,*5C
1485187248.98,15092,11.75,73596.8,-7.97,-40.85,-40.97,0,*55
1485187250.2,15093,11.75,73596.8,-7.97,-41.03,-41.29,0,*5F
1485187251.43,15094,11.75,73596.8,-7.97,-40.97,-41.17,0,*59
1485187252.7,15095,11.75,73596.8,-7.97,-40.85,-40.97,0,*52
1485187253.9,15096,11.75,73598.8,-7.97,-41.17,-41.17,0,*52
1485187255.11,15097,11.75,73592.0,-7.97,-41.17,-41.41,0,*50
1485187256.32,15098,11.75,73598.8,-7.97,-41.17,-41.41,0,*5F
1485187257.56,15099,11.75,73596.8,-7.97,-40.97,-41.03,0,*51
1485187258.83,15100,11.75,73596.3,-7.97,-40.85,-40.97,0,*5F
1485187260.07,15101,11.75,73596.8,-7.99,-40.91,-41.11,0,*5A
1485187261.32,15102,11.75,73596.5,-7.99,-40.91,-40.91,0,*50
1485187262.61,15103,11.75,73596.3,-7.99,-40.85,-40.85,0,*51
1485187263.86,15104,11.75,73598.0,-7.99,-40.91,-40.91,0,*56
1485187265.11,15105,11.75,73594.0,-7.99,-40.91,-41.03,0,*5D
1485187266.36,15106,11.75,73596.5,-7.99,-40.91,-41.11,0,*5D
1485187267.62,15107,11.75,73596.8,-7.99,-41.11,-41.23,0,*54
1485187268.87,15108,11.75,73592.5,-7.99,-41.03,-41.11,0,*59
1485187270.12,15109,11.75,73596.3,-7.99,-40.91,-40.91,0,*5B
1485187271.36,15110,11.75,73598.0,-7.99,-40.91,-41.03,0,*59
1485187272.61,15111,11.75,73594.5,-7.99,-40.91,-41.03,0,*58
1485187273.85,15112,11.75,73596.0,-7.99,-40.73,-40.73,0,*51
1485187275.07,15113,11.75,73596.8,-7.97,-40.65,-40.79,0,*53
1485187276.3,15114,11.75,73594.5,-7.97,-40.65,-40.59,0,*56
1485187277.56,15115,11.75,73596.8,-7.97,-40.79,-40.85,0,*5B
1485187278.79,15116,11.75,73594.8,-7.97,-40.79,-41.03,0,*57
1485187280.03,15117,11.75,73594.8,-7.97,-40.79,-41.03,0,*56
1485187281.27,15118,11.75,73596.8,-7.97,-40.85,-41.03,0,*5A
1485187282.54,15119,11.75,73598.8,-7.97,-40.85,-40.97,0,*57
1485187283.78,15120,11.75,73596.5,-7.97,-40.97,-41.03,0,*52
1485187285.01,15121,11.75,73594.8,-7.97,-40.97,-41.17,0,*56
1485187286.22,15122,11.75,73594.8,-7.97,-41.03,-41.17,0,*59
1485187287.44,15123,11.75,73598.0,-7.97,-41.03,-41.17,0,*58
1485187288.65,15124,11.75,73598.8,-7.97,-41.17,-41.41,0,*59
1485187289.91,15125,11.75,73596.5,-7.99,-41.11,-41.23,0,*54
1485187291.15,15126,11.75,73600.8,-8.01,-41.23,-41.49,0,*54
1485187292.42,15127,11.75,73594.8,-7.99,-41.03,-41.23,0,*55
1485187293.68,15128,11.75,73598.5,-7.99,-40.73,-40.85,0,*51
1485187294.92,15129,11.75,73594.0,-7.99,-40.73,-40.91,0,*55
1485187296.22,15130,11.75,73594.5,-7.99,-40.85,-40.85,0,*51
1485187297.49,15131,11.75,73596.5,-7.99,-40.85,-40.91,0,*55
1485187298.73,15132,11.75,73600.5,-8.01,-40.85,-41.03,0,*52
1485187299.96,15133,11.75,73596.0,-7.99,-40.73,-40.73,0,*52
1485187301.23,15134,11.75,73596.5,-7.99,-40.85,-40.91,0,*50
1485187302.5,15135,11.75,73598.8,-7.99,-40.85,-41.03,0,*5B
1485187303.74,15136,11.75,73592.5,-8.01,-40.85,-40.91,0,*5C
1485187305.01,15137,11.69,73592.0,-7.99,-40.85,-40.91,0,*53
1485187306.25,15138,11.75,73596.0,-8.01,-40.85,-40.91,0,*52
1485187307.5,15139,11.75,73596.0,-7.99,-40.91,-41.11,0,*51
1485187308.72,15140,11.75,73598.0,-8.01,-40.91,-41.03,0,*52
1485187309.96,15141,11.75,73596.8,-7.99,-40.73,-40.91,0,*5B
1485187311.21,15142,11.75,73596.0,-7.99,-40.91,-41.11,0,*5D
1485187312.47,15143,11.75,73596.0,-7.99,-40.91,-41.23,0,*5D
1485187313.74,15144,11.75,73598.0,-7.99,-41.11,-41.35,0,*54
1485187315.0,15145,11.75,73596.3,-7.99,-41.23,-41.49,0,*5F
1485187316.27,15146,11.75,73598.0,-7.99,-41.11,-41.35,0,*56
1485187317.47,15147,11.75,73598.0,-8.01,-41.11,-41.49,0,*52
1485187318.71,15148,11.75,73596.8,-8.01,-41.23,-41.49,0,*5C
1485187319.93,15149,11.75,73596.3,-8.01,-40.91,-41.11,0,*58
1485187321.15,15150,11.75,73598.8,-8.01,-40.91,-41.11,0,*50
1485187322.36,15151,11.75,73594.3,-8.01,-41.03,-41.11,0,*5B
1485187323.61,15152,11.75,73598.5,-8.01,-41.03,-41.23,0,*59
1485187324.83,15153,11.75,73594.8,-8.01,-40.91,-41.03,0,*50
1485187326.05,15154,11.75,73596.8,-8.01,-40.91,-41.03,0,*57
1485187327.29,15155,11.75,73596.8,-8.01,-41.03,-41.35,0,*59
1485187328.54,15156,11.69,73594.0,-8.01,-41.03,-41.23,0,*5D
1485187329.77,15157,11.75,73598.3,-8.01,-41.11,-41.35,0,*58
1485187330.98,15158,11.69,73592.8,-8.01,-41.11,-41.49,0,*5C
1485187332.2,15159,11.75,73596.5,-8.01,-40.91,-41.11,0,*59
1485187333.44,15160,11.75,73602.8,-8.01,-41.03,-41.23,0,*58
1485187334.71,15161,11.75,73594.0,-8.03,-40.97,-40.91,0,*5F
1485187336.0,15162,11.75,73598.8,-8.03,-40.97,-40.97,0,*5A
1485187337.23,15163,11.75,73592.5,-8.05,-40.97,-41.11,0,*52
1485187338.48,15164,11.75,73598.0,-8.03,-40.91,-40.91,0,*5C
1485187339.74,15165,11.75,73596.3,-8.03,-40.97,-41.29,0,*59
1485187341.0,15166,11.75,73598.5,-8.03,-40.97,-41.17,0,*57
1485187342.23,15167,11.75,73594.8,-8.03,-41.11,-41.17,0,*59
1485187343.47,15168,11.75,73596.5,-8.03,-41.11,-41.17,0,*56
1485187344.7,15169,11.75,73598.5,-8.05,-40.97,-41.11,0,*58
1485187346.0,15170,11.69,73594.0,-8.03,-40.97,-40.97,0,*59
1485187347.26,15171,11.75,73596.0,-8.03,-40.97,-41.11,0,*57
1485187348.49,15172,11.75,73600.3,-8.03,-41.11,-41.41,0,*5E
1485187349.75,15173,11.69,73594.5,-8.03,-40.97,-41.41,0,*50
1485187350.99,15174,11.69,73592.3,-8.03,-41.11,-41.29,0,*56
1485187352.22,15175,11.75,73596.3,-8.03,-41.11,-41.29,0,*57
1485187353.46,15176,11.75,73598.3,-8.03,-41.11,-41.41,0,*5A
1485187354.69,15177,11.75,73596.5,-8.03,-41.17,-41.29,0,*53
1485187355.93,15178,11.75,73596.5,-8.05,-41.17,-41.55,0,*51
1485187357.13,15179,11.69,73592.3,-8.05,-41.29,-41.61,0,*5A
1485187358.34,15180,11.75,73596.3,-8.05,-41.17,-41.41,0,*53
1485187359.57,15181,11.75,73594.8,-8.05,-41.17,-41.55,0,*57
1485187360.78,15182,11.75,73596.8,-8.05,-41.17,-41.61,0,*53
1485187361.98,15183,11.75,73598.3,-8.05,-41.29,-41.29,0,*53
1485187363.19,15184,11.75,73598.3,-8.05,-41.11,-41.29,0,*5F
1485187364.39,15185,11.75,73598.0,-8.05,-41.29,-41.41,0,*5B
1485187365.6,15186,11.75,73596.8,-8.05,-41.29,-41.61,0,*5A
1485187366.83,15187,11.75,73596.3,-8.05,-41.29,-41.55,0,*5C
1485187368.03,15188,11.75,73596.0,-8.05,-41.11,-41.29,0,*53
1485187369.27,15189,11.75,73594.3,-8.05,-40.97,-41.17,0,*50
1485187370.5,15190,11.75,73594.3,-8.07,-41.11,-41.17,0,*55
1485187371.76,15191,11.75,73598.0,-8.07,-40.97,-41.11,0,*5D
1485187373.0,15192,11.75,73596.3,-8.05,-40.79,-40.91,0,*55
1485187374.23,15193,11.75,73598.0,-8.05,-40.79,-40.91,0,*54
1485187375.47,15194,11.75,73598.8,-8.05,-40.79,-40.91,0,*53
1485187376.7,15195,11.69,73594.8,-8.05,-40.97,-41.17,0,*5D
1485187377.94,15196,11.75,73596.0,-8.07,-41.11,-41.29,0,*5E
1485187379.17,15197,11.75,73598.3,-8.07,-41.11,-41.29,0,*5F
1485187380.41,15198,11.75,73598.0,-8.07,-41.11,-41.17,0,*5D
1485187381.64,15199,11.75,73596.3,-8.07,-41.11,-41.29,0,*51
1485187382.91,15200,11.75,73596.5,-8.11,-41.03,-41.23,0,*5C
1485187384.2,15201,11.75,73598.8,-8.11,-41.35,-41.35,0,*5F
1485187385.43,15202,11.69,73592.8,-8.07,-41.29,-41.41,0,*55
1485187386.72,15203,11.69,73596.0,-8.11,-41.35,-41.35,0,*5D
1485187387.98,15204,11.69,73592.8,-8.11,-41.17,-41.35,0,*5A
1485187389.23,15205,11.75,73598.3,-8.11,-41.03,-41.17,0,*5E
1485187390.49,15206,11.75,73598.0,-8.11,-40.97,-41.03,0,*54
1485187391.75,15207,11.75,73598.0,-8.07,-40.97,-41.11,0,*51
1485187393.02,15208,11.75,73596.3,-8.11,-40.85,-41.03,0,*59
1485187394.29,15209,11.75,73598.3,-8.07,-40.91,-40.97,0,*56
1485187395.56,15210,11.75,73596.3,-8.11,-41.03,-41.23,0,*5D
1485187396.82,15211,11.69,73592.8,-8.11,-40.97,-41.03,0,*52
1485187398.12,15212,11.69,73596.0,-8.11,-40.85,-40.97,0,*5E
1485187399.4,15213,11.75,73596.8,-8.11,-40.97,-41.23,0,*52
1485187400.67,15214,11.75,73598.5,-8.11,-40.97,-41.03,0,*57
1485187401.91,15215,11.69,73594.0,-8.07,-40.91,-41.17,0,*52
1485187403.17,15216,11.75,73596.3,-8.07,-40.79,-40.91,0,*58
1485187404.44,15217,11.75,73598.5,-8.11,-40.97,-41.03,0,*54
1485187405.71,15218,11.75,73598.8,-8.07,-40.91,-40.97,0,*56
1485187406.97,15219,11.75,73598.5,-8.11,-40.97,-41.03,0,*5A
1485187408.21,15220,11.75,73596.3,-8.11,-41.03,-41.17,0,*59
1485187409.51,15221,11.75,73598.3,-8.11,-41.35,-41.35,0,*5D
1485187410.75,15222,11.69,73594.0,-8.11,-41.03,-41.17,0,*5B
1485187411.99,15223,11.75,73596.8,-8.11,-41.03,-41.17,0,*5A
1485187413.25,15224,11.69,73594.3,-8.11,-41.03,-41.35,0,*5D
1485187414.52,15225,11.75,73596.0,-8.11,-41.03,-41.35,0,*5C
1485187415.76,15226,11.75,73594.5,-8.11,-41.03,-41.17,0,*5F
1485187417.02,15227,11.75,73594.8,-8.11,-41.35,-41.49,0,*50
1485187418.31,15228,11.69,73594.0,-8.11,-41.23,-41.35,0,*53
1485187419.55,15229,11.69,73594.0,-8.13,-41.11,-41.23,0,*56
1485187420.78,15230,11.69,73592.8,-8.13,-41.11,-41.23,0,*5E
1485187422.0,15231,11.75,73596.8,-8.13,-40.91,-41.03,0,*54
1485187423.21,15232,11.69,73596.0,-8.13,-40.65,-40.73,0,*5A
1485187424.45,15233,11.75,73596.3,-8.13,-40.85,-41.03,0,*53
1485187425.71,15234,11.69,73596.0,-8.11,-40.97,-41.03,0,*55
1485187426.98,15235,11.69,73592.8,-8.11,-40.97,-41.03,0,*54
1485187428.19,15236,11.75,73598.3,-8.13,-41.03,-41.11,0,*5A
1485187429.41,15237,11.75,73596.5,-8.13,-41.03,-41.11,0,*5B
1485187430.65,15238,11.75,73596.8,-8.13,-41.03,-41.23,0,*55
1485187431.9,15239,11.75,73596.0,-8.15,-41.03,-41.11,0,*53
1485187433.14,15240,11.75,73598.3,-8.15,-41.03,-41.11,0,*5D
1485187434.36,15241,11.75,73598.0,-8.13,-40.91,-41.03,0,*53
1485187435.6,15242,11.75,73596.0,-8.15,-41.03,-41.29,0,*54
1485187436.82,15243,11.75,73598.8,-8.13,-40.91,-41.11,0,*52
1485187438.09,15244,11.69,73594.8,-8.15,-40.85,-41.03,0,*55
1485187439.34,15245,11.69,73596.5,-8.15,-40.91,-41.03,0,*51
1485187440.56,15246,11.69,73596.5,-8.13,-41.03,-41.11,0,*5D
1485187441.8,15247,11.69,73596.5,-8.15,-41.03,-41.29,0,*51
1485187443.04,15248,11.75,73596.0,-8.15,-41.11,-41.41,0,*53
1485187444.3,15249,11.75,73598.3,-8.15,-41.11,-41.23,0,*56
1485187445.57,15250,11.75,73596.5,-8.15,-41.23,-41.41,0,*5B
1485187446.81,15251,11.75,73598.8,-8.15,-41.11,-41.29,0,*55
1485187448.05,15252,11.75,73598.5,-8.13,-41.03,-41.23,0,*59
1485187449.29,15253,11.69,73596.3,-8.13,-40.85,-41.03,0,*55
1485187450.53,15254,11.75,73596.8,-8.15,-41.03,-41.11,0,*58
1485187451.8,15255,11.69,73594.8,-8.15,-41.03,-41.23,0,*58
1485187453.05,15256,11.69,73594.0,-8.15,-40.91,-40.91,0,*59
1485187454.32,15257,11.69,73592.8,-8.15,-40.85,-41.11,0,*54
1485187455.59,15258,11.75,73598.3,-8.15,-41.03,-41.23,0,*55
1485187456.84,15259,11.75,73598.0,-8.15,-41.03,-41.11,0,*55
1485187458.08,15260,11.69,73594.0,-8.15,-41.03,-41.11,0,*5F
1485187459.33,15261,11.69,73592.8,-8.15,-40.91,-41.03,0,*57
1485187460.6,15262,11.69,73594.3,-8.15,-40.85,-40.91,0,*5B
1485187461.84,15263,11.69,73594.8,-8.13,-40.85,-40.91,0,*5C
1485187463.09,15264,11.69,73594.8,-8.15,-40.91,-41.03,0,*52
1485187464.33,15265,11.75,73596.0,-8.15,-41.03,-41.11,0,*5A
1485187465.61,15266,11.69,73594.8,-8.15,-41.03,-41.23,0,*58
1485187466.87,15267,11.69,73594.8,-8.15,-41.23,-41.41,0,*5F
1485187468.08,15268,11.75,73598.3,-8.17,-41.17,-41.61,0,*57
1485187469.31,15269,11.69,73594.0,-8.19,-41.17,-41.29,0,*54
1485187470.55,15270,11.69,73594.0,-8.19,-40.91,-41.11,0,*58
1485187471.81,15271,11.69,73592.3,-8.17,-40.79,-40.97,0,*5E
1485187473.05,15272,11.69,73592.8,-8.17,-40.97,-41.17,0,*54
1485187474.26,15273,11.69,73596.8,-8.17,-40.91,-40.91,0,*5C
1485187475.5,15274,11.75,73596.8,-8.17,-40.97,-41.17,0,*52
1485187476.73,15275,11.75,73596.0,-8.17,-40.97,-41.11,0,*55
1485187477.97,15276,11.69,73596.8,-8.19,-41.11,-41.11,0,*57
1485187479.23,15277,11.75,73596.3,-8.19,-40.97,-41.11,0,*59
1485187480.46,15278,11.75,73596.0,-8.17,-40.97,-41.11,0,*58
1485187481.69,15279,11.69,73594.5,-8.19,-41.11,-41.17,0,*5E
1485187482.96,15280,11.75,73596.0,-8.19,-40.91,-40.97,0,*58
1485187484.22,15281,11.69,73596.5,-8.19,-40.97,-41.17,0,*56
1485187485.46,15282,11.69,73592.5,-8.19,-40.91,-41.17,0,*53
1485187486.71,15283,11.69,73594.8,-8.17,-40.91,-40.97,0,*55
1485187487.95,15284,11.69,73594.8,-8.19,-40.91,-40.91,0,*5A
1485187489.16,15285,11.69,73592.0,-8.17,-40.91,-41.17,0,*5A
1485187490.37,15286,11.75,73596.0,-8.17,-41.11,-41.17,0,*50
1485187491.6,15287,11.69,73592.8,-8.17,-41.11,-41.35,0,*51
1485187492.84,15288,11.75,73596.8,-8.17,-41.17,-41.35,0,*58
1485187494.07,15289,11.69,73594.8,-8.19,-41.17,-41.29,0,*5A
1485187495.31,15290,11.69,73596.5,-8.17,-40.97,-41.17,0,*58
1485187496.55,15291,11.69,73592.3,-8.19,-40.91,-41.11,0,*57
1485187497.83,15292,11.69,73596.8,-8.19,-40.79,-40.97,0,*5D
1485187499.11,15293,11.69,73592.5,-8.19,-40.79,-40.79,0,*5C
1485187500.38,15294,11.75,73598.5,-8.19,-40.91,-40.97,0,*5D
1485187501.61,15295,11.69,73596.0,-8.19,-41.11,-41.17,0,*5C
1485187502.84,15296,11.75,73598.8,-8.19,-41.11,-41.11,0,*59
1485187504.13,15297,11.69,73594.0,-8.19,-40.97,-40.97,0,*58
1485187505.39,15298,11.69,73592.0,-8.19,-40.79,-40.91,0,*51
1485187506.66,15299,11.69,73592.0,-8.19,-40.91,-40.97,0,*50
1485187507.94,15300,11.69,73592.0,-8.19,-40.59,-40.79,0,*55
1485187509.17,15301,11.69,73592.5,-8.19,-40.73,-40.73,0,*56
1485187510.45,15302,11.69,73592.3,-8.19,-40.79,-40.97,0,*55
1485187511.74,15303,11.69,73592.0,-8.19,-40.79,-40.97,0,*54
1485187512.99,15304,11.69,73594.5,-8.19,-40.53,-40.59,0,*59
1485187514.25,15305,11.75,73598.3,-8.19,-40.53,-40.59,0,*58
1485187515.5,15306,11.75,73598.8,-8.19,-40.59,-40.73,0,*59
1485187516.76,15307,11.69,73594.8,-8.19,-40.59,-40.73,0,*58
1485187517.99,15308,11.75,73598.0,-8.19,-40.53,-40.73,0,*5D
1485187519.2,15309,11.75,73598.3,-8.17,-40.73,-40.91,0,*5C
1485187520.43,15310,11.75,73596.8,-8.17,-40.59,-40.73,0,*50
1485187521.67,15311,11.69,73596.0,-8.17,-40.73,-40.97,0,*53
1485187522.95,15312,11.69,73596.8,-8.19,-40.79,-40.97,0,*54
1485187524.24,15313,11.75,73596.8,-8.19,-40.79,-40.97,0,*55
1485187525.47,15314,11.69,73594.8,-8.17,-40.59,-40.73,0,*54
1485187526.7,15315,11.69,73596.3,-8.17,-40.59,-40.73,0,*55
1485187527.9,15316,11.75,73596.0,-8.17,-40.53,-40.73,0,*5C
1485187529.1,15317,11.69,73598.5,-8.17,-40.53,-40.73,0,*5D
1485187530.35,15318,11.69,73598.3,-8.17,-40.91,-40.97,0,*56
1485187531.57,15319,11.69,73596.8,-8.17,-40.91,-40.91,0,*51
1485187532.83,15320,11.69,73596.8,-8.17,-40.79,-40.97,0,*5B
1485187534.07,15321,11.69,73594.8,-8.17,-40.97,-41.17,0,*53
1485187535.28,15322,11.69,73596.3,-8.17,-40.91,-41.11,0,*50
1485187536.54,15323,11.69,73594.8,-8.19,-40.79,-40.91,0,*50
1485187537.8,15324,11.69,73594.5,-8.17,-40.79,-40.97,0,*5F
1485187539.06,15325,11.69,73596.3,-8.17,-40.59,-40.79,0,*5C
1485187540.33,15326,11.69,73596.0,-8.19,-40.59,-40.79,0,*51
1485187541.62,15327,11.69,73594.5,-8.19,-40.79,-40.97,0,*52
1485187542.87,15328,11.69,73592.8,-8.17,-40.59,-40.79,0,*51
1485187544.1,15329,11.69,73596.3,-8.17,-40.73,-40.79,0,*58
1485187545.36,15330,11.69,73596.5,-8.19,-40.79,-40.91,0,*52
1485187546.62,15331,11.69,73596.8,-8.19,-40.79,-40.91,0,*53
1485187547.89,15332,11.69,73594.8,-8.19,-40.91,-40.97,0,*50
1485187549.13,15333,11.69,73596.0,-8.19,-40.91,-41.11,0,*5E
1485187550.4,15334,11.69,73596.0,-8.19,-40.91,-40.97,0,*56
1485187551.64,15335,11.69,73592.3,-8.19,-40.91,-41.11,0,*58
1485187552.91,15336,11.69,73596.5,-8.19,-40.91,-40.97,0,*54
1485187554.14,15337,11.69,73598.3,-8.19,-41.17,-41.29,0,*5E
1485187555.4,15338,11.69,73594.8,-8.19,-40.97,-41.29,0,*58
1485187556.63,15339,11.69,73596.3,-8.19,-40.73,-40.91,0,*51
1485187557.92,15340,11.69,73594.5,-8.19,-40.79,-40.97,0,*53
1485187559.18,15341,11.75,73598.3,-8.19,-40.79,-40.91,0,*54
1485187560.45,15342,11.69,73596.3,-8.19,-40.91,-40.97,0,*57
1485187561.68,15343,11.69,73598.8,-8.19,-41.11,-41.17,0,*56
1485187562.91,15344,11.75,73596.3,-8.17,-40.97,-41.11,0,*56
1485187564.15,15345,11.69,73594.0,-8.19,-40.73,-40.91,0,*5A
1485187565.38,15346,11.69,73592.3,-8.17,-40.79,-41.11,0,*54
1485187566.64,15347,11.69,73596.5,-8.19,-41.11,-41.35,0,*52
1485187567.9,15348,11.69,73594.5,-8.19,-41.17,-41.35,0,*5B
1485187569.16,15349,11.69,73596.3,-8.19,-41.17,-41.35,0,*5A
1485187570.38,15350,11.69,73594.3,-8.21,-41.03,-41.17,0,*5C
1485187571.61,15351,11.69,73598.3,-8.19,-40.91,-41.11,0,*5A
1485187572.85,15352,11.69,73594.8,-8.19,-41.11,-41.17,0,*56
1485187574.09,15353,11.69,73594.0,-8.21,-41.03,-41.23,0,*58
1485187575.31,15354,11.69,73592.3,-8.21,-41.03,-41.17,0,*58
1485187576.52,15355,11.69,73598.0,-8.21,-41.03,-41.17,0,*59
1485187577.77,15356,11.69,73592.0,-8.21,-41.03,-41.23,0,*5D
1485187579.01,15357,11.69,73596.0,-8.21,-40.85,-41.03,0,*51
1485187580.27,15358,11.69,73596.8,-8.23,-40.97,-41.03,0,*5F
1485187581.49,15359,11.69,73598.0,-8.21,-41.03,-41.17,0,*55
1485187582.78,15360,11.69,73592.3,-8.23,-40.85,-40.97,0,*5B
1485187584.02,15361,11.69,73598.5,-8.21,-40.85,-41.03,0,*54
1485187585.29,15362,11.69,73596.3,-8.21,-40.85,-40.97,0,*5B
1485187586.53,15363,11.69,73596.5,-8.21,-40.65,-40.97,0,*54
1485187587.78,15364,11.69,73594.0,-8.21,-40.59,-40.79,0,*5C
1485187589.01,15365,11.69,73598.5,-8.21,-40.65,-40.79,0,*52
1485187590.28,15366,11.69,73594.8,-8.21,-40.85,-40.97,0,*5F
1485187591.54,15367,11.69,73594.5,-8.21,-40.79,-40.85,0,*5E
1485187592.8,15368,11.69,73594.3,-8.21,-40.97,-40.97,0,*52
1485187594.03,15369,11.69,73592.8,-8.21,-41.03,-41.03,0,*53
1485187595.24,15370,11.69,73592.3,-8.21,-41.03,-41.17,0,*5E
1485187596.49,15371,11.69,73596.8,-8.21,-40.97,-41.03,0,*56
1485187597.75,15372,11.69,73594.3,-8.21,-40.97,-40.97,0,*59
1485187599.01,15373,11.75,73596.5,-8.19,-40.79,-40.91,0,*55
1485187600.28,15374,11.69,73598.0,-8.19,-40.91,-40.97,0,*52
1485187601.52,15375,11.69,73594.5,-8.19,-40.91,-41.11,0,*5C
1485187602.79,15376,11.69,73596.3,-8.19,-40.91,-40.97,0,*50
1485187604.03,15377,11.69,73594.3,-8.19,-40.91,-41.11,0,*5E
1485187605.29,15378,11.69,73594.0,-8.19,-40.79,-40.91,0,*5E
1485187606.51,15379,11.69,73596.8,-8.17,-40.91,-40.91,0,*57
1485187607.79,15380,11.69,73596.3,-8.19,-40.79,-40.97,0,*5F
1485187609.06,15381,11.69,73596.5,-8.19,-40.73,-40.97,0,*54
1485187610.33,15382,11.69,73594.5,-8.19,-40.59,-40.79,0,*5F
1485187611.59,15383,11.69,73598.0,-8.19,-40.79,-40.91,0,*5A
1485187612.86,15384,11.69,73592.0,-8.19,-40.41,-40.73,0,*5A
1485187614.11,15385,11.69,73596.0,-8.19,-40.59,-40.73,0,*52
1485187615.34,15386,11.69,73596.5,-8.17,-40.59,-40.73,0,*5F
1485187616.57,15387,11.69,73594.8,-8.19,-40.53,-40.73,0,*5A
1485187617.85,15388,11.69,73592.3,-8.19,-40.59,-40.79,0,*55
1485187619.1,15389,11.69,73594.3,-8.19,-40.59,-40.73,0,*5E
1485187620.34,15390,11.69,73598.0,-8.17,-40.41,-40.53,0,*53
1485187621.6,15391,11.69,73596.0,-8.19,-40.53,-40.59,0,*55
1485187622.81,15392,11.69,73596.5,-8.17,-40.73,-40.91,0,*5E
1485187624.04,15393,11.69,73592.0,-8.17,-40.59,-40.73,0,*5B
1485187625.29,15394,11.69,73596.0,-8.17,-40.59,-40.79,0,*56
1485187626.52,15395,11.69,73588.8,-8.17,-40.53,-40.59,0,*5F
1485187627.76,15396,11.69,73594.8,-8.17,-40.59,-40.73,0,*5E
1485187628.99,15397,11.69,73592.3,-8.17,-40.79,-40.91,0,*51
1485187630.22,15398,11.69,73596.3,-8.17,-40.73,-40.79,0,*52
1485187631.46,15399,11.69,73596.5,-8.17,-40.91,-40.97,0,*5F
1485187632.7,15400,11.69,73596.3,-8.17,-40.97,-41.11,0,*51
1485187633.91,15401,11.69,73596.3,-8.17,-40.91,-41.17,0,*50
1485187635.15,15402,11.69,73596.3,-8.17,-40.97,-41.17,0,*55
1485187636.36,15403,11.69,73596.8,-8.17,-40.91,-41.17,0,*52
1485187637.6,15404,11.69,73592.0,-8.17,-40.79,-40.91,0,*5C
1485187638.86,15405,11.69,73598.3,-8.17,-40.79,-40.97,0,*5B
1485187640.06,15406,11.69,73598.5,-8.17,-41.11,-41.29,0,*53
1485187641.29,15407,11.69,73596.0,-8.19,-41.29,-41.49,0,*51
1485187642.52,15408,11.69,73594.5,-8.19,-41.17,-41.29,0,*55
1485187643.76,15409,11.69,73598.8,-8.19,-41.11,-41.11,0,*59
1485187645.01,15410,11.69,73592.5,-8.19,-40.79,-40.91,0,*57
1485187646.24,15411,11.69,73596.0,-8.17,-40.73,-40.79,0,*54
1485187647.5,15412,11.69,73594.0,-8.19,-40.73,-40.97,0,*59
1485187648.74,15413,11.69,73594.8,-8.19,-40.91,-41.11,0,*5B
1485187650.0,15414,11.69,73592.5,-8.19,-41.11,-41.35,0,*53
1485187651.23,15415,11.69,73594.8,-8.19,-41.11,-41.17,0,*52
1485187652.49,15416,11.69,73596.8,-8.19,-41.11,-41.35,0,*51
1485187653.7,15417,11.69,73594.3,-8.17,-41.11,-41.17,0,*5E
1485187654.96,15418,11.69,73594.5,-8.19,-40.97,-41.17,0,*50
1485187656.2,15419,11.69,73594.5,-8.19,-40.91,-41.11,0,*51
1485187657.43,15420,11.69,73596.5,-8.19,-41.11,-41.17,0,*54
1485187658.72,15421,11.69,73596.0,-8.19,-40.79,-40.97,0,*53
1485187659.95,15422,11.69,73598.8,-8.17,-40.97,-40.91,0,*58
1485187661.18,15423,11.69,73594.8,-8.19,-40.73,-40.73,0,*51
1485187662.44,15424,11.69,73594.3,-8.19,-40.73,-40.79,0,*5C
1485187663.67,15425,11.69,73592.5,-8.19,-41.11,-41.29,0,*5C
1485187664.93,15426,11.69,73596.8,-8.19,-40.97,-41.11,0,*5B
1485187666.21,15427,11.69,73592.3,-8.19,-40.79,-40.97,0,*55
1485187667.48,15428,11.69,73596.3,-8.19,-40.41,-40.53,0,*59
1485187668.75,15429,11.69,73592.3,-8.19,-40.59,-40.79,0,*59
1485187670.01,15430,11.69,73594.5,-8.19,-40.79,-40.91,0,*55
1485187671.29,15431,11.69,73592.5,-8.19,-40.59,-40.79,0,*50
1485187672.58,15432,11.69,73594.8,-8.19,-40.79,-40.97,0,*51
1485187673.85,15433,11.69,73592.5,-8.19,-40.91,-40.97,0,*56
1485187675.08,15434,11.69,73594.3,-8.19,-40.73,-40.91,0,*5B
1485187676.34,15435,11.69,73596.0,-8.19,-40.91,-40.79,0,*50
1485187677.58,15436,11.69,73598.5,-8.19,-40.73,-40.91,0,*59
1485187678.85,15437,11.69,73592.5,-8.19,-40.59,-40.79,0,*56
1485187680.13,15438,11.69,73592.3,-8.19,-40.91,-40.97,0,*5D
1485187681.38,15439,11.69,73592.3,-8.19,-40.59,-40.73,0,*52
1485187682.63,15440,11.69,73594.5,-8.17,-40.91,-40.97,0,*5C
1485187683.86,15441,11.69,73594.3,-8.17,-40.59,-40.73,0,*53
1485187685.07,15442,11.69,73594.3,-8.17,-41.11,-41.17,0,*5E
1485187686.32,15443,11.69,73596.5,-8.19,-41.17,-41.35,0,*57
1485187687.57,15444,11.69,73590.8,-8.19,-40.91,-40.91,0,*50
1485187688.8,15445,11.69,73592.3,-8.19,-41.11,-41.29,0,*5A
1485187690.03,15446,11.75,73598.0,-8.17,-41.11,-41.35,0,*5A
1485187691.29,15447,11.69,73594.8,-8.19,-40.97,-41.11,0,*5C
1485187692.54,15448,11.69,73596.3,-8.19,-40.91,-40.91,0,*5C
1485187693.78,15449,11.69,73592.8,-8.19,-40.91,-40.91,0,*5D
1485187695.07,15450,11.69,73594.3,-8.19,-40.79,-40.97,0,*55
1485187696.3,15451,11.69,73596.5,-8.19,-41.11,-41.17,0,*52
1485187697.53,15452,11.69,73594.3,-8.19,-41.11,-41.29,0,*5C